Birmingham, AL

7:49 AM CST on December 16, 2017 (GMT -0600)
Birmingham International

Weather History for KBHM - June, 2013

Change the Weather History Date:

Friday, June 28, 2013

  Actual Average Record
Temperature  
Mean Temperature 82 °F 80 °F  
Max Temperature 89 °F 90 °F 104 °F (1931)
Min Temperature 74 °F 70 °F 53 °F (1968)
Cooling Degree Days 17 15  
Month to date cooling degree days 391 353  
Year to date cooling degree days 656 635  
Since 1 June cooling degree days 391 353  
Growing Degree Days 32 (Base 50)    
Moisture  
Dew Point 72 °F    
Average Humidity 72    
Maximum Humidity 91    
Minimum Humidity 52    
Precipitation  
Precipitation T in 0.16 in 3.51 in (1999)
Month to date precipitation 8.66 4.06  
Year to date precipitation 39.17 28.03  
Sea Level Pressure  
Sea Level Pressure 29.82 in    
Wind  
Wind Speed 8 mph (West)    
Max Wind Speed 20 mph    
Max Gust Speed 26 mph    
Visibility 10 miles    
Events      
T = Trace of Precipitation, MM = Missing Value Source: NWS Daily Summary

Daily Weather History Graph

Daily Weather History Graph

Search for Another Location

Airport or City:

Trip Planner

Search our weather history database for the weather conditions in past years. The results will help you decide how hot, cold, wet, or windy it might be!

Date:

Astronomy

Jun. 28, 2013 Rise Set
Actual Time 5:39 AM CDT 8:01 PM CDT
Civil Twilight 5:10 AM CDT 8:30 PM CDT
Nautical Twilight 4:34 AM CDT 9:05 PM CDT
Astronomical Twilight 3:56 AM CDT 9:44 PM CDT
Moon 11:50 PM CDT (6/28) 11:28 AM CDT (6/28)
Length of Visible Light 15h 19m
Length of Day
14h 21m
Waning Gibbous, 66% of the Moon is Illuminated
Jun 28
Waning Gibbous
Jun 29
Last Quarter
Jul 8
New
Jul 15
First Quarter
Jul 22
Full

Hourly Weather History & Observations

Time (CDT) Temp. Heat Index Dew Point Humidity Pressure Visibility Wind Dir Wind Speed Gust Speed Precip Events Conditions
12:53 AM 82.0 °F 87.4 °F 73.0 °F 74% 29.88 in 10.0 mi SSW 4.6 mph - N/A   Clear
1:53 AM 81.0 °F 86.2 °F 73.9 °F 79% 29.87 in 10.0 mi WSW 5.8 mph - N/A   Clear
2:53 AM 79.0 °F - 73.9 °F 84% 29.86 in 10.0 mi West 5.8 mph - N/A   Clear
3:53 AM 80.1 °F 84.5 °F 73.9 °F 81% 29.85 in 10.0 mi West 3.5 mph - N/A   Clear
4:53 AM 79.0 °F - 75.0 °F 88% 29.84 in 9.0 mi West 4.6 mph - N/A   Clear
5:53 AM 78.1 °F - 73.9 °F 87% 29.86 in 8.0 mi WSW 4.6 mph - N/A   Clear
6:53 AM 80.1 °F 84.5 °F 73.9 °F 81% 29.87 in 9.0 mi West 4.6 mph - N/A   Clear
7:53 AM 82.0 °F 88.6 °F 75.0 °F 79% 29.87 in 10.0 mi WNW 9.2 mph - N/A   Clear
8:53 AM 84.9 °F 91.4 °F 73.0 °F 67% 29.85 in 10.0 mi WNW 9.2 mph - N/A   Clear
9:53 AM 86.0 °F 93.8 °F 73.9 °F 67% 29.85 in 10.0 mi WNW 10.4 mph - N/A   Scattered Clouds
10:44 AM 86.0 °F 93.4 °F 73.4 °F 66% 29.89 in 10.0 mi WNW 16.1 mph - N/A   Mostly Cloudy
10:53 AM 86.0 °F 93.8 °F 73.9 °F 67% 29.87 in 10.0 mi NW 18.4 mph 24.2 mph N/A   Mostly Cloudy
11:24 AM 86.0 °F 93.4 °F 73.4 °F 66% 29.90 in 10.0 mi WNW 13.8 mph 23.0 mph N/A   Mostly Cloudy
11:53 AM 84.9 °F 89.4 °F 70.0 °F 61% 29.86 in 10.0 mi WNW 12.7 mph 24.2 mph N/A   Scattered Clouds
12:53 PM 82.0 °F 85.9 °F 70.0 °F 67% 29.80 in 10.0 mi SSW 5.8 mph - 0.00 in   Scattered Clouds
1:53 PM 84.9 °F 90.7 °F 72.0 °F 65% 29.79 in 10.0 mi SSW 8.1 mph - N/A   Scattered Clouds
2:53 PM 88.0 °F 92.1 °F 69.1 °F 53% 29.76 in 10.0 mi SW 10.4 mph - N/A   Scattered Clouds
3:53 PM 89.1 °F 93.7 °F 69.1 °F 52% 29.77 in 10.0 mi WSW 15.0 mph - N/A   Clear
4:53 PM 87.1 °F 92.0 °F 70.0 °F 57% 29.75 in 10.0 mi West 10.4 mph - N/A   Scattered Clouds
5:53 PM 86.0 °F 90.1 °F 69.1 °F 57% 29.73 in 10.0 mi West 12.7 mph - N/A   Scattered Clouds
6:53 PM 81.0 °F 85.2 °F 72.0 °F 74% 29.73 in 10.0 mi North 13.8 mph 21.9 mph N/A   Overcast
7:53 PM 78.1 °F - 73.0 °F 84% 29.75 in 10.0 mi NNW 3.5 mph - N/A   Scattered Clouds
8:53 PM 78.1 °F - 73.0 °F 84% 29.75 in 10.0 mi Calm Calm - N/A   Overcast
9:53 PM 79.0 °F - 72.0 °F 79% 29.77 in 10.0 mi SSW 9.2 mph - N/A   Partly Cloudy
10:53 PM 75.9 °F - 70.0 °F 82% 29.75 in 10.0 mi WSW 6.9 mph - N/A   Clear
11:53 PM 75.0 °F - 71.1 °F 87% 29.75 in 10.0 mi WSW 5.8 mph - N/A   Clear